Regional Weather Roundup
Issued by NWS Little Rock, AR

Home | Current Version | Previous Version | Text Only | Print | Product List | Glossary On
Versions: 1 2 3 4 5 6 7 8 9 10 11 12 13 14 15 16 17 18 19 20 21 22 23 24 25 26 27 28 29 30 31 32 33 34 35 36 37 38 39 40 41 42 43 44 45 46 47 48 49 50
000
ASUS44 KLZK 040405
RWRLZK

WEATHER ROUNDUP FOR ARKANSAS
NATIONAL WEATHER SERVICE LITTLE ROCK AR
1100 PM CDT SUN MAY 03 2015

NOTE: "FAIR" INDICATES FEW OR NO CLOUDS BELOW 12,000 FEET WITH NO
SIGNIFICANT WEATHER AND/OR OBSTRUCTIONS TO VISIBILITY.

ARZ001-003-010-029-040500-
NORTHWEST ARKANSAS

CITY           SKY/WX    TMP DP  RH WIND       PRES   REMARKS
FAYETTEVILLE   CLEAR     65  56  72 S3        30.02R
FORT SMITH     CLEAR     69  54  58 SE5       30.00R
HARRISON       CLEAR     64  55  72 S6        30.03R
BENTONVILLE    CLEAR    N/A N/A N/A S5        30.01S
ROGERS         CLEAR     67  55  65 S7        30.02R
SILOAM SPGS    CLEAR     64  52  63 S7        30.02R
HIGHFILL       CLEAR     64  55  72 S5        30.01R
$$

ARZ004-005-016-040500-
NORTH CENTRAL ARKANSAS

CITY           SKY/WX    TMP DP  RH WIND       PRES   REMARKS
BATESVILLE     CLEAR     68  55  64 S3        30.04S
FLIPPIN        FAIR      70  55  60 S3        30.00S
MTN HOME       CLEAR     68  54  60 S7        30.01S
$$

ARZ040-041-040500-
WEST CENTRAL ARKANSAS

CITY           SKY/WX    TMP DP  RH WIND       PRES   REMARKS
MENA           CLEAR     70  59  68 CALM      30.04R
MOUNT IDA      CLEAR     70  56  61 CALM      30.02R
$$

ARZ009-017-025-026-028-040500-
NORTHEAST ARKANSAS

CITY           SKY/WX    TMP DP  RH WIND       PRES   REMARKS
CORNING          N/A     68  54  60 S9        30.04S
JONESBORO      CLEAR     67  53  61 S8        30.05R
NEWPORT        CLEAR     66  56  70 SE3       30.05S
WALNUT RIDGE   CLEAR     64  52  63 S9        30.04S
BLYTHEVILLE    CLEAR     67  51  56 S7        30.06S
$$

ARZ022-023-033-042-044-040500-
CENTRAL ARKANSAS

CITY           SKY/WX    TMP DP  RH WIND       PRES   REMARKS
LITTLE ROCK    FAIR      69  56  62 S7        30.04S
N LITTLE ROCK  PTCLDY    69  60  74 SW5       30.04S
JACKSONVILLE   CLEAR     62  58  86 SE2       30.04R
SEARCY         CLEAR     62  59  90 CALM      30.06R
HOT SPRINGS    CLEAR     70  57  63 CALM      30.04S
RUSSELLVILLE   CLEAR     64  59  83 CALM      30.02S
CLINTON        FAIR      59  57  94 CALM      30.05S
$$

ARZ036-040500-
EAST ARKANSAS

CITY           SKY/WX    TMP DP  RH WIND       PRES   REMARKS
WEST MEMPHIS   CLEAR     64  55  72 SE7       30.06R
$$

ARZ050-053-066-070-073-040500-
SOUTHWEST ARKANSAS

CITY           SKY/WX    TMP DP  RH WIND       PRES   REMARKS
ARKADELPHIA    FAIR      64  64 100 CALM      30.05R
CAMDEN         CLEAR     63  57  82 CALM      30.05S
TEXARKANA      CLEAR     69  57  65 S8        30.03S
EL DORADO      CLEAR     64  59  83 CALM      30.06S
DE QUEEN       CLEAR     65  58  78 S3        30.00S
$$

ARZ056-057-069-040500-
SOUTHEAST ARKANSAS

CITY           SKY/WX    TMP DP  RH WIND       PRES   REMARKS
PINE BLUFF     CLEAR     65  58  78 S8        30.06R
STUTTGART      CLEAR     68  55  64 S8        30.06S
MONTICELLO     CLEAR     71  55  56 S6        30.07R

$$




USA.gov is the U.S. government's official web portal to all federal, state and local government web resources and services.